San Antonio, TX

12:26 AM CDT on July 21, 2017 (GMT -0500)
San Antonio International

Weather History for KSAT - October, 2011

Change the Weather History Date:

Friday, October 7, 2011

  Actual Average Record
Temperature  
Mean Temperature 85 °F 74 °F  
Max Temperature 93 °F 85 °F 99 °F (1937)
Min Temperature 76 °F 63 °F 43 °F (1964)
Degree Days  
Heating Degree Days 0 0  
Month to date heating degree days 0 0  
Since 1 July heating degree days 0 2  
Cooling Degree Days 20 9  
Month to date cooling degree days 80 67  
Year to date cooling degree days 3738 2901  
Growing Degree Days 33 (Base 50)    
Moisture  
Dew Point 71 °F    
Average Humidity 71    
Maximum Humidity 100    
Minimum Humidity 41    
Precipitation  
Precipitation 0.14 in 0.13 in 3.90 in (1994)
Month to date precipitation 0.14 0.86  
Year to date precipitation 9.79 24.83  
Snow  
Snow 0.00 in - - ()
Month to date snowfall 0.0  
Since 1 July snowfall 0.0  
Since 1 September snowfall 0.0  
Snow Depth 0.00 in    
Sea Level Pressure  
Sea Level Pressure 29.95 in    
Wind  
Wind Speed 15 mph (SSE)    
Max Wind Speed 28 mph    
Max Gust Speed 35 mph    
Visibility 9 miles    
Events Rain    
T = Trace of Precipitation, MM = Missing Value Source: NWS Daily Summary

Daily Weather History Graph

Daily Weather History Graph

Search for Another Location

Airport or City:

Trip Planner

Search our weather history database for the weather conditions in past years. The results will help you decide how hot, cold, wet, or windy it might be!

Date:

Astronomy

Oct. 07, 2011 Rise Set
Actual Time 7:30 AM CDT 7:12 PM CDT
Civil Twilight 7:06 AM CDT 7:36 PM CDT
Nautical Twilight 6:38 AM CDT 8:04 PM CDT
Astronomical Twilight 6:11 AM CDT 8:31 PM CDT
Moon 4:42 PM CDT (10/7) 3:37 AM CDT (10/7)
Length of Visible Light 12h 29m
Length of Day
11h 42m
Waxing Gibbous, 83% of the Moon is Illuminated
Oct 7
Waxing Gibbous
Oct 11
Full
Oct 19
Last Quarter
Oct 26
New
Nov 2
First Quarter

Hourly Weather History & Observations

Time (CDT) Temp. Heat Index Dew Point Humidity Pressure Visibility Wind Dir Wind Speed Gust Speed Precip Events Conditions
12:53 AM 77.0 °F - 70.0 °F 79% 29.93 in 10.0 mi SE 15.0 mph - N/A   Overcast
1:53 AM 77.0 °F - 71.1 °F 82% 29.92 in 10.0 mi SSE 12.7 mph - N/A   Overcast
2:53 AM 77.0 °F - 71.1 °F 82% 29.93 in 10.0 mi SE 12.7 mph - N/A   Overcast
3:53 AM 77.0 °F - 71.1 °F 82% 29.92 in 10.0 mi SSE 17.3 mph 21.9 mph N/A   Overcast
4:21 AM 77.0 °F - 71.6 °F 83% 29.97 in 10.0 mi SSE 13.8 mph - N/A   Overcast
4:53 AM 77.0 °F - 72.0 °F 84% 29.92 in 10.0 mi SSE 12.7 mph - N/A   Overcast
5:09 AM 75.2 °F - 71.6 °F 89% 29.97 in 10.0 mi SSE 11.5 mph - N/A   Overcast
5:53 AM 75.9 °F - 72.0 °F 87% 29.92 in 10.0 mi SSE 9.2 mph - N/A   Mostly Cloudy
6:53 AM 75.9 °F - 71.1 °F 85% 29.94 in 10.0 mi South 13.8 mph - N/A   Mostly Cloudy
7:16 AM 75.2 °F - 71.6 °F 89% 29.99 in 10.0 mi South 6.9 mph - N/A   Mostly Cloudy
7:53 AM 75.9 °F - 72.0 °F 87% 29.95 in 10.0 mi SSE 9.2 mph - N/A   Mostly Cloudy
8:00 AM 75.2 °F - 71.6 °F 89% 30.00 in 10.0 mi South 10.4 mph - N/A   Mostly Cloudy
8:09 AM 77.0 °F - 71.6 °F 83% 30.00 in 10.0 mi SSE 11.5 mph - N/A   Mostly Cloudy
8:16 AM 77.0 °F - 71.6 °F 83% 30.00 in 10.0 mi SSE 10.4 mph - N/A   Overcast
8:53 AM 77.0 °F - 72.0 °F 84% 29.96 in 10.0 mi South 9.2 mph - N/A   Overcast
9:19 AM 78.8 °F - 71.6 °F 78% 30.02 in 9.0 mi South 11.5 mph - 0.00 in Rain Light Rain
9:53 AM 77.0 °F - 73.0 °F 88% 29.97 in 5.0 mi SSE 11.5 mph - 0.02 in Rain Light Rain
10:08 AM 77.0 °F - 73.4 °F 89% 30.02 in 7.0 mi SSE 9.2 mph - 0.08 in Rain Light Rain
10:34 AM 77.0 °F - 75.2 °F 94% 30.03 in 7.0 mi SSE 15.0 mph - 0.08 in Rain Light Rain
10:42 AM 77.0 °F - 75.2 °F 94% 30.03 in 4.0 mi SSE 11.5 mph - 0.08 in Rain Light Rain
10:53 AM 75.9 °F - 75.0 °F 97% 29.98 in 7.0 mi SSE 9.2 mph - 0.10 in Rain Light Rain
11:15 AM 78.8 °F - 75.2 °F 89% 30.03 in 7.0 mi SSE 9.2 mph - 0.02 in Rain Light Rain
11:53 AM 78.1 °F - 73.9 °F 87% 29.98 in 10.0 mi SSE 9.2 mph - 0.02 in   Overcast
12:53 PM 84.0 °F 90.2 °F 73.0 °F 69% 29.95 in 10.0 mi SE 17.3 mph 21.9 mph N/A   Scattered Clouds
1:53 PM 89.1 °F 93.7 °F 69.1 °F 52% 29.91 in 10.0 mi SE 13.8 mph 19.6 mph N/A   Scattered Clouds
2:53 PM 90.0 °F 92.8 °F 66.9 °F 46% 29.88 in 10.0 mi South 13.8 mph - N/A   Mostly Cloudy
3:53 PM 91.4 °F 94.0 °F 66.2 °F 43% 29.92 in 10.0 mi SSE 16.1 mph 23.0 mph N/A   Scattered Clouds
4:53 PM 91.9 °F 94.1 °F 64.9 °F 41% 29.86 in 10.0 mi SSE 19.6 mph 27.6 mph N/A   Mostly Cloudy
5:53 PM 90.0 °F 91.3 °F 64.0 °F 42% 29.86 in 10.0 mi SE 18.4 mph 26.5 mph N/A   Scattered Clouds
6:53 PM 84.9 °F 87.6 °F 66.9 °F 55% 29.87 in 10.0 mi SE 26.5 mph 31.1 mph N/A   Scattered Clouds
7:53 PM 82.0 °F 84.5 °F 66.9 °F 60% 29.89 in 10.0 mi SE 17.3 mph 29.9 mph N/A   Partly Cloudy
8:53 PM 81.0 °F 84.1 °F 69.1 °F 67% 29.92 in 10.0 mi ESE 21.9 mph 31.1 mph N/A   Scattered Clouds
9:53 PM 79.0 °F - 68.0 °F 69% 29.94 in 10.0 mi SE 24.2 mph 29.9 mph N/A   Partly Cloudy
10:41 PM 78.8 °F - 69.8 °F 74% 30.01 in 10.0 mi SE 17.3 mph 25.3 mph N/A   Mostly Cloudy
10:53 PM 78.1 °F - 69.1 °F 74% 29.96 in 10.0 mi SE 18.4 mph 27.6 mph N/A   Mostly Cloudy
11:53 PM 77.0 °F - 70.0 °F 79% 29.96 in 10.0 mi SE 16.1 mph - N/A   Mostly Cloudy